Location: Elmsmere
(40.9284°N, 73.8207°W)
Time: 06:10:25
(UTC+00:00)

USA 308 - Visible Passes

Search period start: 03 March 2021 00:00
Search period end: 13 March 2021 00:00
Orbit: 568 x 578 km, 54.0° (Epoch: 28 February)

Date Brightness Start Highest point End Pass type
(mag) Time Alt. Az. Time Alt. Az. Time Alt. Az.
03 Mar 5.2 00:55:46 10° NNW 00:58:07 14° N 00:58:20 14° N visible
03 Mar 5.2 23:16:19 10° NW 23:19:06 17° NNW 23:21:53 10° NNE visible
04 Mar 5.2 00:58:00 10° NNW 01:00:24 15° N 01:00:24 15° N visible
04 Mar 5.2 23:19:00 10° NW 23:21:30 15° N 23:24:00 10° NNE visible
05 Mar 5.1 01:00:05 10° NNW 01:02:28 17° N 01:02:28 17° N visible
05 Mar 5.2 23:21:35 10° NW 23:23:54 14° N 23:26:14 10° NNE visible
06 Mar 4.9 01:02:05 10° NNW 01:04:32 19° N 01:04:32 19° N visible
06 Mar 5.2 23:24:01 10° NNW 23:26:20 14° N 23:28:38 10° NE visible
07 Mar 4.7 01:04:02 10° NNW 01:06:37 22° N 01:06:37 22° N visible
07 Mar 5.1 23:26:16 10° NNW 23:28:43 15° N 23:31:11 10° NE visible
08 Mar 4.5 01:05:59 10° NW 01:08:43 27° N 01:08:43 27° N visible
08 Mar 4.9 23:28:22 10° NNW 23:31:07 16° NNE 23:33:50 10° NE visible
09 Mar 4.1 01:07:56 10° NW 01:10:50 34° N 01:10:50 34° N visible
09 Mar 4.7 23:30:22 10° NNW 23:33:27 19° NNE 23:36:31 10° ENE visible
10 Mar 3.8 01:09:54 10° NW 01:13:01 44° NNW 01:13:01 44° NNW visible
10 Mar 4.4 23:32:19 10° NNW 23:35:45 23° NNE 23:39:06 10° ENE visible
11 Mar 3.5 01:11:56 10° NW 01:15:15 53° NW 01:15:15 53° NW visible
11 Mar 4.1 23:34:15 10° NW 23:38:00 29° NNE 23:41:23 12° E visible
12 Mar 3.7 01:14:02 10° WNW 01:17:33 49° W 01:17:33 49° W visible
12 Mar 3.6 23:36:10 10° NW 23:40:11 38° NNE 23:43:46 12° E visible
